Anchorage Merrill, AK

2:23 PM AKST on February 23, 2018 (GMT -0900)
Merrill

Weather History for PAMR - March, 2014

Change the Weather History Date:

Monday, March 24, 2014

  Actual Average Record
Temperature  
Mean Temperature 26 °F -  
Max Temperature 39 °F 33 °F 54 °F (2016)
Min Temperature 12 °F 18 °F 6 °F (2007)
Degree Days  
Heating Degree Days 40    
Moisture  
Dew Point 13 °F    
Average Humidity 59    
Maximum Humidity 81    
Minimum Humidity 32    
Precipitation  
Precipitation 0.00 in - - ()
Snow  
Snow 0.00 in - - ()
Snow Depth 8.00 in    
Sea Level Pressure  
Sea Level Pressure 30.16 in    
Wind  
Wind Speed 1 mph (NE)    
Max Wind Speed 6 mph    
Max Gust Speed -    
Visibility 10 miles    
Events      
Averages and records for this station are not official NWS values.
T = Trace of Precipitation, MM = Missing Value Source: NWS Daily Summary

Daily Weather History Graph

Daily Weather History Graph

Search for Another Location

Airport or City:

Trip Planner

Search our weather history database for the weather conditions in past years. The results will help you decide how hot, cold, wet, or windy it might be!

Date:

Astronomy

Mar. 24, 2014 Rise Set
Actual Time 7:47 AM AKDT 8:25 PM AKDT
Civil Twilight 7:03 AM AKDT 9:08 PM AKDT
Nautical Twilight 6:10 AM AKDT 10:02 PM AKDT
Astronomical Twilight 5:11 AM AKDT 11:02 PM AKDT
Moon 5:00 AM AKDT (3/24) 12:28 PM AKDT (3/24)
Length of Visible Light 14h 05m
Length of Day
12h 37m
Last Quarter, 41% of the Moon is Illuminated
Mar 24
Last Quarter
Mar 30
New
Apr 7
First Quarter
Apr 14
Full
Apr 21
Last Quarter

Hourly Weather History & Observations

Time (AKDT) Temp. Windchill Dew Point Humidity Pressure Visibility Wind Dir Wind Speed Gust Speed Precip Events Conditions
12:53 AM 19.9 °F 14.9 °F 15.1 °F 81% 30.34 in 10.0 mi East 3.5 mph - N/A   Clear
1:53 AM 21.0 °F - 14.0 °F 74% 30.33 in 10.0 mi Calm Calm - N/A   Clear
2:53 AM 19.0 °F - 10.0 °F 68% 30.33 in 10.0 mi Calm Calm - N/A   Clear
3:53 AM 18.0 °F - 10.9 °F 74% 30.32 in 10.0 mi Calm Calm - N/A   Clear
4:53 AM 15.1 °F - 8.1 °F 74% 30.30 in 10.0 mi Calm Calm - N/A   Clear
5:53 AM 14.0 °F - 7.0 °F 74% 30.28 in 10.0 mi Calm Calm - N/A   Clear
6:53 AM 12.9 °F 6.9 °F 6.1 °F 74% 30.27 in 10.0 mi ESE 3.5 mph - N/A   Clear
7:53 AM 16.0 °F - 7.0 °F 68% 30.26 in 10.0 mi Calm Calm - N/A   Clear
8:53 AM 16.0 °F - 8.1 °F 71% 30.25 in 10.0 mi Calm Calm - N/A   Clear
9:53 AM 21.9 °F - 10.0 °F 60% 30.23 in 10.0 mi Calm Calm - N/A   Clear
10:53 AM 26.1 °F - 12.0 °F 55% 30.21 in 10.0 mi Calm Calm - N/A   Clear
11:53 AM 30.0 °F - 15.1 °F 54% 30.22 in 10.0 mi Calm Calm - N/A   Clear
12:53 PM 35.1 °F 32.2 °F 16.0 °F 46% 30.19 in 10.0 mi SSW 3.5 mph - N/A   Clear
1:53 PM 36.0 °F - 17.1 °F 46% 30.17 in 10.0 mi Calm Calm - N/A   Clear
2:53 PM 37.9 °F 35.5 °F 12.0 °F 35% 30.14 in 10.0 mi NW 3.5 mph - N/A   Clear
3:53 PM 39.0 °F - 10.9 °F 32% 30.11 in 10.0 mi Calm Calm - N/A   Clear
4:53 PM 34.0 °F 28.8 °F 21.0 °F 59% 30.09 in 10.0 mi WNW 5.8 mph - N/A   Clear
5:53 PM 36.0 °F - 21.9 °F 57% 30.05 in 10.0 mi Calm Calm - N/A   Clear
6:53 PM 37.9 °F - 12.0 °F 35% 30.02 in 10.0 mi Calm Calm - N/A   Clear
7:53 PM 37.9 °F 34.4 °F 12.0 °F 35% 29.97 in 10.0 mi NNW 4.6 mph - N/A   Clear
8:53 PM 32.0 °F - 15.1 °F 50% 29.97 in 10.0 mi Calm Calm - N/A   Clear
9:53 PM 28.9 °F - 16.0 °F 58% 29.96 in 10.0 mi Calm Calm - N/A   Clear
10:53 PM 28.0 °F 24.2 °F 15.1 °F 58% 29.93 in 10.0 mi SE 3.5 mph - N/A   Clear
11:53 PM 25.0 °F - 16.0 °F 69% 29.92 in 10.0 mi Calm Calm - N/A   Clear